Weather History for Monett, MO

Change the Weather History Date:

Saturday, March 30, 2013

  Actual Average (KJLN) Record (KJLN)
Temperature  
Mean Temperature 59 °F 53 °F  
Max Temperature 68 °F 65 °F 83 °F (1967)
Min Temperature 50 °F 42 °F 17 °F (1964)
Degree Days  
Heating Degree Days 6 12  
Month to date heating degree days 496  
Since 1 July heating degree days 3750  
Cooling Degree Days 0 1  
Month to date cooling degree days 4  
Year to date cooling degree days 5  
Growing Degree Days 9 (Base 50)    
Moisture  
Dew Point 51 °F    
Average Humidity 84    
Maximum Humidity 100    
Minimum Humidity 56    
Precipitation  
Precipitation 0.48 in 0.13 in 1.07 in (1985)
Month to date precipitation 3.29  
Year to date precipitation 7.64  
Sea Level Pressure  
Sea Level Pressure 29.97 in    
Wind  
Wind Speed 9 mph (SSE)    
Max Wind Speed 25 mph    
Max Gust Speed 33 mph    
Visibility 9 miles    
Events Rain , Thunderstorm    
T = Trace of Precipitation, MM = Missing Value Source: NWS Daily Summary

Daily Weather History Graph

Daily Weather History Graph

Search for Another Location

Airport:

Trip Planner

Search our weather history database for the weather conditions in past years. The results will help you decide how hot, cold, wet, or windy it might be!

Date:

Astronomy

Mar. 30, 2013 Rise Set
Actual Time 7:04 AM CDT 7:36 PM CDT
Civil Twilight 6:38 AM CDT 8:03 PM CDT
Nautical Twilight 6:07 AM CDT 8:33 PM CDT
Astronomical Twilight 5:36 AM CDT 9:05 PM CDT
Moon 11:38 PM CDT 9:05 AM CDT
Length of Visible Light 13h 24m
Length of Day
12h 32m
Waning Gibbous, 86% of the Moon is Illuminated
Mar 30
Waning Gibbous
Apr 2
Last Quarter
Apr 10
New
Apr 18
First Quarter
Apr 25
Full

Hourly Weather History & Observations

Time (CDT) Temp. Dew Point Humidity Pressure Visibility Wind Dir Wind Speed Gust Speed Precip Events Conditions
12:15 AM 55.4 °F 48.2 °F 77% 30.11 in 10.0 mi ESE 8.1 mph - N/A   Overcast
12:55 AM 53.6 °F 46.4 °F 77% 30.10 in 10.0 mi SE 8.1 mph - N/A   Clear
1:15 AM 53.6 °F 46.4 °F 77% 30.09 in 10.0 mi SE 9.2 mph - N/A   Scattered Clouds
1:35 AM 53.6 °F 46.4 °F 77% 30.08 in 10.0 mi SE 9.2 mph - N/A   Mostly Cloudy
1:55 AM 53.6 °F 48.2 °F 82% 30.08 in 10.0 mi SE 10.4 mph - N/A   Overcast
2:15 AM 53.6 °F 48.2 °F 82% 30.08 in 10.0 mi SE 10.4 mph - N/A   Overcast
2:35 AM 53.6 °F 48.2 °F 82% 30.07 in 10.0 mi SE 10.4 mph - N/A   Overcast
2:55 AM 53.6 °F 50.0 °F 88% 30.08 in 10.0 mi SE 9.2 mph - N/A   Overcast
3:15 AM 53.6 °F 50.0 °F 88% 30.07 in 10.0 mi SE 9.2 mph - N/A   Overcast
3:35 AM 53.6 °F 50.0 °F 88% 30.06 in 10.0 mi SE 9.2 mph - N/A   Overcast
3:55 AM 53.6 °F 50.0 °F 88% 30.05 in 10.0 mi SE 12.7 mph - N/A   Mostly Cloudy
4:15 AM 53.6 °F 50.0 °F 88% 30.04 in 10.0 mi SE 12.7 mph 18.4 mph N/A   Mostly Cloudy
4:35 AM 53.6 °F 50.0 °F 88% 30.03 in 10.0 mi SE 11.5 mph - N/A   Mostly Cloudy
4:55 AM 53.6 °F 50.0 °F 88% 30.02 in 10.0 mi ESE 11.5 mph - N/A   Mostly Cloudy
5:15 AM 51.8 °F 50.0 °F 94% 30.02 in 10.0 mi ESE 10.4 mph - N/A   Scattered Clouds
5:35 AM 51.8 °F 50.0 °F 94% 30.02 in 10.0 mi SE 10.4 mph 16.1 mph N/A   Clear
5:55 AM 51.8 °F 50.0 °F 94% 30.02 in 10.0 mi SE 10.4 mph - N/A   Clear
6:15 AM 51.8 °F 50.0 °F 94% 30.02 in 10.0 mi SE 10.4 mph - N/A Thunderstorm Clear
6:35 AM 51.8 °F 50.0 °F 94% 30.02 in 10.0 mi SE 10.4 mph - N/A Thunderstorm Scattered Clouds
6:55 AM 51.8 °F 50.0 °F 94% 30.02 in 10.0 mi SE 9.2 mph - N/A   Overcast
7:15 AM 51.8 °F 50.0 °F 94% 30.01 in 10.0 mi ESE 9.2 mph - N/A Rain , Thunderstorm Light Thunderstorms and Rain
7:35 AM 51.8 °F 50.0 °F 94% 30.03 in 7.0 mi SSE 5.8 mph - 0.01 in Rain Rain
7:55 AM 51.8 °F 50.0 °F 94% 30.03 in 10.0 mi SSE 6.9 mph - 0.03 in Rain Light Rain
8:15 AM 51.8 °F 50.0 °F 94% 30.04 in 10.0 mi SSE 6.9 mph - 0.01 in Rain Light Rain
8:35 AM 51.8 °F 50.0 °F 94% 30.05 in 7.0 mi Calm Calm - 0.03 in Rain Rain
8:55 AM 51.8 °F 50.0 °F 94% 30.06 in 5.0 mi SSW 4.6 mph - 0.08 in Rain Rain
9:15 AM 51.8 °F 50.0 °F 94% 30.07 in 3.0 mi SSW 8.1 mph - 0.05 in Rain Heavy Rain
9:35 AM 50.0 °F 50.0 °F 100% 30.05 in 2.0 mi SSE 8.1 mph - 0.16 in Rain Rain
9:55 AM 50.0 °F 50.0 °F 100% 29.99 in 3.0 mi SE 17.3 mph - 0.19 in Rain Light Rain
10:15 AM 50.0 °F 50.0 °F 100% 29.99 in 5.0 mi SSE 17.3 mph 23.0 mph 0.01 in Rain Light Rain
10:35 AM 50.0 °F 50.0 °F 100% 29.97 in 7.0 mi SSE 13.8 mph 20.7 mph 0.01 in Rain Light Rain
10:55 AM 51.8 °F 50.0 °F 94% 29.98 in 7.0 mi SSE 11.5 mph 17.3 mph 0.01 in   Scattered Clouds
11:15 AM 53.6 °F 51.8 °F 94% 29.97 in 10.0 mi SSE 10.4 mph - N/A   Clear
11:35 AM 55.4 °F 51.8 °F 88% 29.97 in 10.0 mi SSW 11.5 mph - N/A   Scattered Clouds
11:55 AM 57.2 °F 51.8 °F 82% 29.97 in 10.0 mi SW 10.4 mph - N/A   Mostly Cloudy
12:15 PM 57.2 °F 53.6 °F 88% 29.97 in 10.0 mi SW 9.2 mph - N/A   Overcast
12:35 PM 59.0 °F 53.6 °F 82% 29.96 in 10.0 mi SW 11.5 mph - N/A   Mostly Cloudy
12:55 PM 60.8 °F 53.6 °F 77% 29.96 in 10.0 mi SW 10.4 mph - N/A   Mostly Cloudy
1:15 PM 60.8 °F 53.6 °F 77% 29.96 in 10.0 mi WSW 10.4 mph - N/A   Mostly Cloudy
1:35 PM 62.6 °F 55.4 °F 77% 29.95 in 10.0 mi West 8.1 mph - N/A   Mostly Cloudy
1:55 PM 62.6 °F 53.6 °F 72% 29.95 in 10.0 mi WSW 10.4 mph - N/A   Scattered Clouds
2:15 PM 64.4 °F 53.6 °F 68% 29.94 in 10.0 mi SW 11.5 mph - N/A   Scattered Clouds
2:35 PM 64.4 °F 53.6 °F 68% 29.93 in 10.0 mi SSW 12.7 mph 17.3 mph N/A   Scattered Clouds
2:55 PM 64.4 °F 53.6 °F 68% 29.92 in 10.0 mi SW 9.2 mph - N/A   Scattered Clouds
3:15 PM 66.2 °F 53.6 °F 64% 29.91 in 10.0 mi SW 12.7 mph 16.1 mph N/A   Scattered Clouds
3:35 PM 68.0 °F 53.6 °F 60% 29.91 in 10.0 mi WSW 9.2 mph - N/A   Scattered Clouds
3:55 PM 68.0 °F 51.8 °F 56% 29.90 in 10.0 mi West 6.9 mph - N/A   Mostly Cloudy
4:15 PM 68.0 °F 53.6 °F 60% 29.89 in 10.0 mi SW 11.5 mph 16.1 mph N/A   Mostly Cloudy
4:35 PM 68.0 °F 53.6 °F 60% 29.88 in 10.0 mi WSW 6.9 mph - N/A   Scattered Clouds
4:55 PM 68.0 °F 53.6 °F 60% 29.88 in 10.0 mi West 5.8 mph - N/A   Mostly Cloudy
5:15 PM 68.0 °F 53.6 °F 60% 29.88 in 10.0 mi WSW 10.4 mph - N/A   Mostly Cloudy
5:35 PM 68.0 °F 53.6 °F 60% 29.87 in 10.0 mi WSW 10.4 mph - N/A   Mostly Cloudy
5:55 PM 68.0 °F 53.6 °F 60% 29.86 in 10.0 mi SW 11.5 mph - N/A   Scattered Clouds
6:15 PM 64.4 °F 53.6 °F 68% 29.87 in 10.0 mi SSW 6.9 mph - N/A   Clear
6:35 PM 64.4 °F 53.6 °F 68% 29.87 in 10.0 mi SSW 5.8 mph - N/A   Mostly Cloudy
6:55 PM 64.4 °F 55.4 °F 73% 29.87 in 10.0 mi SW 11.5 mph - N/A Thunderstorm Overcast
7:15 PM 62.6 °F 53.6 °F 72% 29.91 in 10.0 mi NW 25.3 mph 33.4 mph N/A Thunderstorm Mostly Cloudy
7:35 PM 51.8 °F 50.0 °F 94% 29.90 in 7.0 mi ENE 17.3 mph - 0.10 in Rain , Thunderstorm Heavy Thunderstorms and Rain
7:55 PM 53.6 °F 50.0 °F 88% 29.90 in 10.0 mi ESE 5.8 mph - 0.11 in   Overcast
8:15 PM 53.6 °F 50.0 °F 88% 29.90 in 10.0 mi ESE 5.8 mph - N/A Thunderstorm Mostly Cloudy
8:35 PM 53.6 °F 51.8 °F 94% 29.89 in 7.0 mi ESE 5.8 mph - 0.02 in Rain , Thunderstorm Rain
8:55 PM 53.6 °F 51.8 °F 94% 29.90 in 10.0 mi SSE 6.9 mph - 0.03 in Rain , Thunderstorm Light Thunderstorms and Rain
9:15 PM 53.6 °F 51.8 °F 94% 29.89 in 10.0 mi SSE 9.2 mph - N/A Rain Light Rain
9:35 PM 53.6 °F 50.0 °F 88% 29.91 in 10.0 mi Calm Calm - N/A   Overcast
9:55 PM 53.6 °F 50.0 °F 88% 29.92 in 10.0 mi NE 4.6 mph - N/A   Overcast
10:15 PM 51.8 °F 50.0 °F 94% 29.91 in 7.0 mi ENE 5.8 mph - 0.02 in Rain Light Rain
10:35 PM 51.8 °F 50.0 °F 94% 29.92 in 10.0 mi SE 4.6 mph - 0.02 in Rain Rain
10:55 PM 51.8 °F 50.0 °F 94% 29.92 in 10.0 mi SE 3.5 mph - 0.03 in Rain Light Rain
11:15 PM 51.8 °F 50.0 °F 94% 29.92 in 10.0 mi South 3.5 mph - N/A   Overcast
11:35 PM 51.8 °F 51.8 °F 100% 29.92 in 10.0 mi Calm Calm - N/A   Overcast
11:55 PM 51.8 °F 50.0 °F 94% 29.91 in 10.0 mi Calm Calm - N/A   Mostly Cloudy